Live-Position
3D-Globus wird geladen...
Über Starlink 3904
Group: 3 satellites
Beschreibung wird geladen...
Nächste Überflüge
Passes for default location (London). Set your location on the main map for personalized predictions.
Höhenverlauf
Loading altitude history...
No altitude history available
Zweizeiliger Elementsatz
1 52464U 22049P 26122.39307006 .00001612 00000-0 11934-3 0 9990
2 52464 53.2172 178.0391 0001239 78.5447 281.5685 15.08832375220351
Epoch: 2. Mai 2026 •
Age: 22 hours
Aktueller Status
Höhe 553.7 km
Geschwindigkeit 7.58 km/s
Subsatellitenpunkt -40.06°S,
64.54°E
Startdatum 6. Mai 2022
Alter 3.9 years
Typ internet
Startgruppe
Falcon 9 •
Group 4-17 •
48 satellites
Starlink 3870
52451
Starlink 3909 52452
Starlink 3872 52453
Starlink 3888 52454
Starlink 3890 52455
Starlink 3896 52456
Starlink 3899 52457
Starlink 3898 52458
Starlink 3856 52459
Starlink 3900 52461
Starlink 3903 52462
Starlink 3885 52463
Starlink 3863 52465
Starlink 3873 52467
Starlink 3864 52468
Starlink 3828 52469
Starlink 3859 52470
Starlink 3862 52471
Starlink 3881 52472
Starlink 3879 52473
...and 27 more
Technische Details
Klassifizierung Payload
Masse 297.00 kg
Trockenmasse 220.00 kg
Gesamtmasse 297.00 kg
Länge 0.20 m
Durchmesser 2.80 m
Spannweite 9.00 m
Form Box + pan
Hersteller SPXS
Bus-Typ Starlink
Phasenstatus In Orbit
Besitzer/Staat SPXS/US
Most Searched
Loading...